Flag for Greece Weather past 2 weeks in Iráklion, Crete, Greece

Now
82 °F

Sunny.


Feels Like: 87 °F
Forecast: 71 / 89 °F
Wind: 6 mph from Northeast

Location: Heraklion Airport

Current Time: Jul 22, 2014 at 10:46:41 PM

Latest Report: Jul 22, 2014 at 7:50 PM


Visibility: 10 mi

Pressure: 29.74 "Hg

Humidity: 70%

Dew point: 72 °F

Location of IráklionLocation

Historic Weather in Iráklion — Graph

°F

Iráklion temperature yesterday

Maximum temperature yesterday: 84 °F (at 11:50 AM)
Minimum temperature yesterday: 77 °F (at 3:50 AM)
Average temperature yesterday: 81 °F

Past Weeks' High & Low Weather Summary

 TemperatureHumidityPressure
High91 °F (Jul 9, 9:50 AM)94% (Jul 18, 3:50 AM)29.92 "Hg (Jul 18, 3:50 AM)
Low68 °F (Jul 13, 4:50 AM)36% (Jul 9, 9:50 AM)29.68 "Hg (Jul 11, 2:50 AM)
Average79 °F69%29.82 "Hg
* Reported Jul 7 7:20 PM — Jul 22 7:50 PM, Iráklion, Weather by CustomWeather, © 2014

Note: Actual official high and low records may vary slightly from our data, if they occured in-between our weather recording intervals... More about our weather records

Advertising

Iráklion weather history for previous 24 hours

 ConditionsComfort  
Time TempWeatherWind HumidityBarometerVisibility
7:50 PM
Jul 22
82 °FSunny.6 mph70%29.74 "Hg10 mi
7:20 PM84 °FSunny.6 mph70%29.74 "Hg10 mi
6:50 PM84 °FSunny.6 mph70%29.74 "Hg10 mi
6:20 PM86 °FSunny.5 mph70%29.74 "Hg10 mi
5:50 PM86 °FSunny.7 mph70%29.74 "Hg10 mi
5:20 PM90 °FSunny.5 mph52%29.74 "Hg10 mi
4:50 PM90 °FSunny.6 mph52%29.74 "Hg10 mi
4:20 PM90 °FPassing clouds.5 mph55%29.77 "HgN/A
3:50 PM90 °FPassing clouds.5 mph55%29.77 "HgN/A
3:20 PM88 °FPassing clouds.3 mph62%29.77 "HgN/A
2:50 PM88 °FPassing clouds.6 mph62%29.77 "HgN/A
2:20 PM84 °FSunny.6 mph79%29.80 "Hg10 mi
1:50 PM84 °FSunny.6 mph79%29.80 "Hg10 mi
1:20 PM84 °FSunny.5 mph79%29.80 "Hg10 mi
12:50 PM84 °FSunny.5 mph79%29.80 "Hg10 mi
12:20 PM82 °FSunny.6 mph79%29.80 "Hg10 mi
11:50 AM82 °FSunny.5 mph79%29.80 "Hg10 mi
11:20 AM84 °FSunny.5 mph70%29.80 "Hg10 mi
10:50 AM84 °FSunny.3 mph70%29.80 "Hg10 mi
10:20 AM81 °FSunny.2 mph79%29.80 "Hg10 mi
9:50 AM81 °FSunny.3 mph79%29.80 "Hg10 mi
9:20 AM82 °FSunny.3 mph70%29.80 "Hg10 mi
8:50 AM81 °FSunny.1 mph70%29.80 "Hg10 mi
8:20 AM81 °FSunny.5 mph54%29.80 "Hg10 mi
7:50 AM75 °FSunny.7 mph61%29.80 "Hg10 mi
7:20 AM72 °FSunny.7 mph65%29.80 "Hg10 mi
6:50 AM72 °FClear.7 mph65%29.80 "Hg10 mi
6:20 AM70 °FClear.7 mph69%29.77 "Hg10 mi
5:50 AM70 °FClear.8 mph69%29.77 "Hg10 mi
4:50 AM73 °FPassing clouds.8 mph69%29.77 "HgN/A
3:50 AM73 °FPassing clouds.7 mph69%29.77 "HgN/A
2:50 AM73 °FPassing clouds.7 mph69%29.77 "HgN/A
2:20 AM73 °FPassing clouds.8 mph74%29.80 "HgN/A
1:50 AM73 °FPassing clouds.5 mph74%29.80 "HgN/A
1:20 AM77 °FPassing clouds.6 mph74%29.83 "HgN/A
12:50 AM77 °FPassing clouds.3 mph74%29.83 "HgN/A
12:20 AM79 °FPassing clouds.10 mph70%29.83 "HgN/A
11:50 PM
Jul 21
79 °FPassing clouds.13 mph70%29.83 "HgN/A
11:20 PM79 °FPassing clouds.12 mph70%29.83 "HgN/A
10:50 PM79 °FPassing clouds.14 mph70%29.83 "HgN/A
Weather by CustomWeather, © 2014

See weather overviewHow to use our weather pages